Weather in Krasnyy Kust

Russia / Vladimir Oblast     55°51′41″N   41°16′43″E
temp.,
°C
wind,
m/s
gust,
m/s
humid.,
%
clouds,
%
prec.,
mm/h
press.,
hPa
HPBL,
m
3 march, wed
wed300:00−2nw41195100 0.3 1007685
03:00−5nw41192100 0.4 1009569
06:00−7nw5129389 0.0 1010504
09:00−6nw5129195 0.1 1012563
12:00−3nw5108293 0.0 1012953
15:00−2wnw599083 0.1 1011887
18:00−3wsw41195100 0.2 1010543
21:00−2w4119299 0.3 1009771
4 march, thu
thu400:00−2w51193100 0.2 1006846
03:00−2wsw61393100 0.4 1004745
06:00−1wsw61496100 0.6 1000891
09:000w71297100 1.7 999960
12:000wnw51086100 1.1 9991028
15:000wnw4776100 1.1 1000981
18:00−3nw2290100 0.0 99971
21:00−5n2294100 0.0 100064
5 march, fri
fri500:00−7nne2495100 0.0 100097
03:00−7n2496100 0.0 1001138
06:00−9n2595100 0.0 1003136
09:00−9n359273 0.0 1006242
12:00−5nnw348318 0.0 1007614
15:00−5nw237930 0.0 1009765
18:00−9nw129046 0.0 101021
21:00−10sw129127 0.0 101221
6 march, sat
sat600:00−10sw239637 0.1 101246
03:00−10wsw239764 0.2 101361
06:00−12nw379794 0.1 1014162
09:00−12nnw478974 0.1 1015331
12:00−10nw47800 0.0 1016673
15:00−8nw35740 0.0 1015770
18:00−12w23870 0.0 101424
21:00−13sw36900 0.0 1014115
7 march, sun
sun700:00−13sw49937 0.0 1013242
03:00−12ssw4119443 0.0 1010298
06:00−10ssw6158794 0.0 1006550
09:00−8ssw7149197 0.3 10021019
12:00−5sw81589100 0.5 9971150
15:00−3sw81593100 1.9 9921214
18:00−2sw81694100 1.8 9911323
21:00−9wsw3118390 3.8 992297